Location: Unspecified
(0.0000°N, 0.0000°E)
Time: 15:51:23
(UTC+02:00)

Palapa 6 Rocket - Visible Passes

Search period start: 30 September 2014 00:00
Search period end: 10 October 2014 00:00
Orbit: 485 x 1235 km, 22.7° (Epoch: 29 September)

Date Brightness Start Highest point End Pass type
(mag) Time Alt. Az. Time Alt. Az. Time Alt. Az.
30 Sep 4.8 21:38:04 10° SW 21:44:02 35° SSE 21:44:02 35° SSE visible
01 Oct 4.5 21:25:44 10° SW 21:32:34 42° SSE 21:33:10 41° SE visible
02 Oct 4.4 21:13:26 10° SW 21:20:40 49° SSE 21:22:19 41° ESE visible
02 Oct 6.5 23:03:27 10° WSW 23:04:24 14° WSW 23:04:24 14° WSW visible
03 Oct 4.3 21:01:09 10° SW 21:08:44 58° SSE 21:11:28 35° E visible
03 Oct 6.2 22:51:24 10° W 22:53:33 20° W 22:53:33 20° W visible
04 Oct 4.3 20:48:54 10° WSW 20:56:45 67° SSE 21:00:38 28° E visible
04 Oct 5.8 22:39:23 10° W 22:42:43 26° W 22:42:43 26° W visible
05 Oct 4.3 20:36:41 10° WSW 20:44:43 77° SSE 20:49:48 21° ENE visible
05 Oct 5.5 22:27:24 10° W 22:31:53 31° WNW 22:31:53 31° WNW visible
06 Oct 4.4 20:24:31 10° WSW 20:32:40 87° SSE 20:38:57 15° ENE visible
06 Oct 5.4 22:15:26 10° W 22:21:02 34° NW 22:21:02 34° NW visible
07 Oct 4.5 20:12:23 10° WSW 20:20:35 84° NNW 20:27:59 10° ENE visible
07 Oct 5.3 22:03:31 10° W 22:10:09 32° NNW 22:10:09 32° NNW visible
08 Oct 3.4 07:15:14 10° NW 07:18:49 46° NNE 07:22:36 10° E visible
08 Oct 4.7 20:00:18 10° WSW 20:08:29 75° NNW 20:16:03 10° ENE visible
08 Oct 5.4 21:51:37 10° W 21:58:14 30° NNW 21:59:15 29° N visible
09 Oct 2.9 07:03:49 12° NW 07:07:07 61° NNE 07:10:54 10° ESE visible
09 Oct 5.6 21:39:47 10° WNW 21:46:15 27° NNW 21:48:18 24° N visible
